User: anonymous   Login
Location: Fort Hays State University
(38.8712°N, 99.3432°W)
Time: 03:06:30
(UTC-05:00)
Language:

ALOS - Orbit

View from above orbital plane
View from above orbital plane
View from above satellite
View from above satellite

Ground track
Ground track

The orbit data is extracted from the following two-line orbital elements,

1 28931U 06002A   17228.89797918  .00000040  00000-0  16536-4 0  9998
2 28931  97.8408 253.2073 0002433 102.3261 257.8214 14.62377525616330
Epoch (UTC): 16 August 2017 21:33:05
Eccentricity: 0.0002433
inclination: 97.8408°
perigee height: 684 km
apogee height: 687 km
right ascension of ascending node: 253.2073°
argument of perigee: 102.3261°
revolutions per day: 14.62377525
mean anomaly at epoch: 257.8214°
orbit number at epoch: 61633

The dashed part of the orbit path shows where the satellite is in the earth's shadow,  

DLR